• MPC Preparation (Info)

  • MPEC 2016-L92 : 2016 LW10

    The following Minor Planet Electronic Circular may be linked-to from your own Web pages, but must not otherwise be redistributed electronically.

    A form allowing access to any MPEC is at the bottom of this page.


    Read MPEC 2016-L91 Read MPEC 2016-L93


    M.P.E.C. 2016-L92                                Issued 2016 June 10, 15:22 UT
    
         The Minor Planet Electronic Circulars contain information on unusual
             minor planets and routine data on comets.  They are published
        on behalf of Division F of the International Astronomical Union by the
              Minor Planet Center, Smithsonian Astrophysical Observatory,
                              Cambridge, MA 02138, U.S.A.
    
                 Prepared using the Tamkin Foundation Computer Network
    
                                  MPC@CFA.HARVARD.EDU
                URL https://www.minorplanetcenter.net/    ISSN 1523-6714
    
                                       2016 LW10
    
    Observations:
         K16L10W  C2016 06 08.34747 15 22 48.05 -02 14 03.3          19.9 VqEL092G96
         K16L10W* C2016 06 08.39479 15 22 37.35 -01 51 40.8          19.8 VqEL092G96
         K16L10W  C2016 06 08.39496 15 22 37.32 -01 51 35.8          20.2 VqEL092G96
         K16L10W  C2016 06 08.39513 15 22 37.29 -01 51 30.8          20.0 VqEL092G96
         K16L10W  C2016 06 08.39531 15 22 37.28 -01 51 25.6          20.2 VqEL092G96
         K16L10W  C2016 06 08.39570 15 22 37.13 -01 51 14.8                qEL092G96
         K16L10W  C2016 06 08.39588 15 22 37.06 -01 51 08.9                qEL092G96
         K16L10W  C2016 06 08.39605 15 22 37.09 -01 51 04.4                qEL092G96
         K16L10W  C2016 06 08.39623 15 22 37.04 -01 50 59.5          19.9 VqEL092G96
         K16L10W  C2016 06 09.22476 15 19 59.00 +04 35 09.6          20.2 VqEL092G96
         K16L10W  C2016 06 09.22754 15 19 58.38 +04 36 25.6          20.3 VqEL092G96
         K16L10W  C2016 06 09.23032 15 19 57.72 +04 37 43.2          20.1 VqEL092G96
         K16L10W  C2016 06 09.23310 15 19 57.05 +04 38 59.2          20.0 VqEL092G96
         K16L10W KC2016 06 10.17090615 16 59.89 +11 35 19.1          20.4 VuEL092H21
         K16L10W KC2016 06 10.17512315 16 58.98 +11 37 07.6          20.6 VuEL092H21
         K16L10W KC2016 06 10.17896215 16 58.13 +11 38 46.1          20.5 VuEL092H21
         K16L10W  C2016 06 10.21637 15 16 52.17 +11 54 57.7                qEL092G96
         K16L10W  C2016 06 10.21666 15 16 52.09 +11 55 06.1          20.3 VqEL092G96
         K16L10W  C2016 06 10.21695 15 16 52.01 +11 55 12.4          20.3 VqEL092G96
         K16L10W  C2016 06 10.21724 15 16 51.98 +11 55 20.5          20.8 VqEL092G96
    
    Observer details:
    G96 Mt. Lemmon Survey.  Observers E. J. Christensen, G. J. Leonard.  Measurers
        E. J. Christensen, D. C. Fuls, A. R. Gibbs, A. D. Grauer, J. A. Johnson,
        R. A. Kowalski, S. M. Larson, G. J. Leonard, R. G. Matheny, R. L. Seaman,
        F. C. Shelly.  1.5-m reflector + 10K CCD.
    H21 Astronomical Research Observatory, Westfield.  Observer R. Holmes.
        Measurers S. Foglia, L. Buzzi, T. Linder, R. Holmes.  0.61-m f/4.5
        astrograph + CCD.
    
    Orbital elements:
    2016 LW10                                                Earth MOID = 0.0734 AU
    Epoch 2016 July 31.0 TT = JDT 2457600.5                 MPC
    M 358.44214              (2000.0)            P               Q
    n   0.61494724     Peri.   62.67746     +0.56204413     +0.59827470
    a   1.3695487      Node   254.12429     -0.79431410     +0.58293112
    e   0.3010917      Incl.   36.42457     +0.23058948     +0.54978059
    P   1.60           H   24.0           G   0.15           U   8
    Residuals in seconds of arc
    160608 G96  0.1-  0.3-    160608 G96  0.2+  0.3+    160610 H21  0.0   0.1+
    160608 G96  0.0   0.4-    160608 G96  0.1+  0.1+    160610 H21  0.2-  0.1-
    160608 G96  0.1+  0.2-    160609 G96  0.0   0.3-    160610 G96  0.2+  0.3-
    160608 G96  0.2+  0.0     160609 G96  0.3+  0.6-    160610 G96  0.0   0.6+
    160608 G96  0.6+  0.1+    160609 G96  0.0   0.6+    160610 G96  0.2-  0.5-
    160608 G96  0.3-  0.2-    160609 G96  0.4-  0.3+    160610 G96  0.3+  0.2+
    160608 G96  0.8-  0.6+    160610 H21  0.1-  0.0
    
    Ephemeris:
    2016 LW10                a,e,i = 1.37, 0.30, 36                  q = 0.9572
    Date    TT    R. A. (2000) Decl.     Delta      r     Elong.  Phase     V
    2016 05 11    17 23 02.8 -76 05 31   0.3352  1.2103   119.4    46.7    23.8
    ...
    2016 05 26    16 20 23.5 -65 04 34   0.1708  1.1422   136.0    38.0    22.0
    ...
    2016 06 03    15 43 08.2 -39 47 06   0.09962 1.1075   158.2    19.9    20.2
    ...
    2016 06 09    15 20 42.6 +02 52 11   0.08313 1.0827   143.0    34.3    20.2
    2016 06 10    15 17 32.0 +10 21 59   0.08567 1.0787   136.2    40.7    20.4
    2016 06 11    15 14 30.6 +17 18 02   0.08960 1.0748   129.6    46.7    20.7
    ...
    2016 06 17    14 59 17.0 +44 56 18   0.1323  1.0519   102.2    70.7    22.2
    ...
    2016 06 25    14 44 36.9 +59 55 09   0.2086  1.0242    86.2    82.0    23.5
    ...
    2016 07 10    14 23 13.9 +70 04 23   0.3549  0.9834    74.5    85.1    24.7
    
    A. U. Tomatic                (C) Copyright 2016 MPC           M.P.E.C. 2016-L92
    

    Read MPEC 2016-L91 Read MPEC 2016-L93


    MPEC number:

    Enter an MPEC number in one of the following forms:

    • 1997-B01 (the full form)
    • J97B01 (the packed version of the full form)
    • B01 (the abbreviated form)